Location: ??????????
(54.8537°N, 38.8755°E)
Time: 08:24:29
(UTC+00:00)

Vanguard 1 Rocket - Visible Passes

Search period start: 19 September 2024 00:00
Search period end: 29 September 2024 00:00
Orbit: 649 x 4219 km, 34.3° (Epoch: 18 September)

Date Brightness Start Highest point End Pass type
(mag) Time Alt. Az. Time Alt. Az. Time Alt. Az.
19 Sep 10.4 01:07:04 15° SW 01:18:32 36° SSE 01:38:38 10° ESE visible
19 Sep 10.3 23:58:56 21° S 00:05:38 29° SSE 00:22:22 10° E visible
20 Sep 10.6 02:17:14 10° WSW 02:31:55 40° S 02:53:37 10° ESE visible
20 Sep 10.4 22:50:47 20° SSE 22:53:30 21° SE 23:05:23 10° E visible
21 Sep 10.3 01:07:59 17° SW 01:18:21 37° SSE 01:38:08 10° ESE visible
21 Sep 10.8 21:42:39 12° SE 21:42:39 12° SE 21:46:11 10° ESE visible
21 Sep 10.1 23:59:50 24° S 00:05:27 31° SSE 00:22:02 10° ESE visible
22 Sep 10.5 02:17:46 10° WSW 02:31:46 38° S 02:52:50 10° SE visible
22 Sep 10.3 22:51:42 22° SSE 22:53:15 22° SE 23:05:26 10° ESE visible
23 Sep 10.2 01:08:53 19° SW 01:18:15 36° S 01:37:30 10° ESE visible
23 Sep 10.7 21:43:34 13° ESE 21:43:34 13° ESE 21:47:37 10° ESE visible
24 Sep 10.0 00:00:45 26° S 00:05:21 31° SSE 00:21:37 10° ESE visible
24 Sep 10.5 02:18:24 10° WSW 02:31:40 36° S 02:51:52 10° SE visible
24 Sep 10.2 22:52:38 24° SSE 22:53:08 24° SSE 23:05:19 10° ESE visible
25 Sep 10.1 01:09:49 20° SW 01:18:15 35° S 01:36:45 10° ESE visible
25 Sep 10.7 21:44:31 14° ESE 21:44:31 14° ESE 21:48:21 10° ESE visible
26 Sep 9.9 00:01:42 28° S 00:05:23 31° SSE 00:21:05 10° ESE visible
26 Sep 10.4 02:19:09 10° WSW 02:31:37 33° S 02:50:42 10° SE visible
26 Sep 10.1 22:53:37 25° SSE 22:53:37 25° SSE 23:05:07 10° ESE visible
27 Sep 10.0 01:10:48 21° SW 01:18:19 33° S 01:35:50 10° SE visible
27 Sep 10.6 21:45:32 14° ESE 21:45:32 14° ESE 21:48:44 10° ESE visible
28 Sep 9.9 00:02:44 28° S 00:05:30 31° SSE 00:20:27 10° ESE visible
28 Sep 10.4 02:20:02 10° WSW 02:31:38 30° SSW 02:49:16 10° SE visible
28 Sep 10.1 22:54:40 25° SSE 22:54:40 25° SSE 23:04:49 10° ESE visible
